Meteo Giornale » Osservazioni meteo Austria » Innsbruck

ore: 21:50 - Osservazioni Meteo Innsbruck
Lat. 47° 16' N Lon. 11° 21' E Alt. 581 metri s.l.m.

sereno Europe/Vienna

19 °C

Sereno

Temp. 24 Ore

17 °C

26 °C

Nord

5.5 Km/h

Dew point 9 °C

Umidità 52 %

Visibilità  10 Km

Il sole sorge alle ore 05:15

Il sole tramonta alle ore 21:13

Data e Ora Cielo e Fenomeni T °C DP °C Um. % Pres. hPa Vis. km Vento km/h
Oggi h: 21:50 sereno Sereno 19 9 52 1024 10 N 5.5
Oggi h: 21:20 sereno Sereno 21 8 43 1024 10 N 5.5
Oggi h: 20:50 poco_nuvoloso Poco Nuvoloso 22 8 40 1023 10 E 13
Oggi h: 20:20 poco_nuvoloso Poco Nuvoloso 21 8 43 1023 10 SE 7.4
Oggi h: 19:50 poco_nuvoloso Poco Nuvoloso 23 6 33 1023 10 N 11.1
Oggi h: 19:20 poco_nuvoloso Poco Nuvoloso 24 8 35 1023 10 N/NE 14.8
Oggi h: 18:50 poco_nuvoloso Poco Nuvoloso 25 8 33 1022 10 N 22.2
Oggi h: 18:20 poco_nuvoloso Poco Nuvoloso 25 7 31 1022 10 N/NE 24
Oggi h: 17:50 poco_nuvoloso Poco Nuvoloso 25 8 33 1022 10 N/NE 20.3
Oggi h: 17:20 poco_nuvoloso Poco Nuvoloso 25 8 33 1023 10 N 25.9
Oggi h: 16:50 poco_nuvoloso Poco Nuvoloso 25 7 31 1022 10 N/NE 20.3
Oggi h: 16:20 poco_nuvoloso Poco Nuvoloso 25 6 29 1023 10 NE 20.3
Oggi h: 15:50 poco_nuvoloso Poco Nuvoloso 26 6 27 1022 10 N 27.8
Oggi h: 15:20 poco_nuvoloso Poco Nuvoloso 25 8 33 1022 10 N/NE 24
Oggi h: 14:50 poco_nuvoloso Poco Nuvoloso 25 9 36 1023 10 NE 22.2
Oggi h: 14:20 poco_nuvoloso Poco Nuvoloso 25 9 36 1023 10 N/NE 27.8
Oggi h: 13:50 poco_nuvoloso Poco Nuvoloso 24 9 38 1023 10 NE 18.5
Oggi h: 13:20 poco_nuvoloso Poco Nuvoloso 25 10 38 1023 10 E/NE 16.7
Oggi h: 12:50 poco_nuvoloso Poco Nuvoloso 24 11 43 1023 10 N 3.7
Oggi h: 12:20 poco_nuvoloso Poco Nuvoloso 24 12 47 1024 10 SE 7.4
Oggi h: 11:50 poco_nuvoloso Poco Nuvoloso 23 13 53 1024 10 N 7.4
Oggi h: 11:20 poco_nuvoloso Poco Nuvoloso 22 13 56 1024 10 SE 9.3
Oggi h: 10:50 poco_nuvoloso Poco Nuvoloso 21 12 56 1024 10 N 3.7
Oggi h: 10:20 nuvoloso Nuvoloso 20 13 64 1025 10 N 3.7
Oggi h: 09:50 nuvoloso Nuvoloso 20 13 64 1025 10 N 3.7
Oggi h: 09:20 molto_nuvoloso Molto Nuvoloso 19 13 68 1025 10 N 5.5
Oggi h: 08:50 molto_nuvoloso Molto Nuvoloso 18 13 72 1025 10 N 5.5
Oggi h: 08:20 molto_nuvoloso Molto Nuvoloso 17 13 77 1024 10 N 3.7
Oggi h: 07:50 molto_nuvoloso Molto Nuvoloso 17 13 77 1024 10 N 1.8
Oggi h: 07:20 molto_nuvoloso Molto Nuvoloso 17 14 82 1024 10 N 3.7
Oggi h: 06:50 nuvoloso_piovaschi Debole Rovescio di Pioggia 17 13 77 1023 10 N 3.7
Oggi h: 06:20 molto_nuvoloso Molto Nuvoloso 17 14 82 1023 10 E 9.3
Oggi h: 05:50 molto_nuvoloso Molto Nuvoloso 17 13 77 1023 10 E 13
Oggi h: 05:20 coperto_pioggia Pioviggine Leggera 18 14 77 1023 10 E 9.3
Oggi h: 04:50 molto_nuvoloso Molto Nuvoloso 18 14 77 1022 10 E 7.4
Oggi h: 04:20 molto_nuvoloso Molto Nuvoloso 18 14 77 1022 10 N 5.5
Oggi h: 03:50 molto_nuvoloso Molto Nuvoloso 18 14 77 1022 10 N 3.7
Oggi h: 03:20 molto_nuvoloso Molto Nuvoloso 18 15 82 1022 10 N 5.5
Oggi h: 02:50 molto_nuvoloso Molto Nuvoloso 18 14 77 1023 10 N 3.7
Oggi h: 02:20 molto_nuvoloso Molto Nuvoloso 18 14 77 1022 10 N 3.7
Oggi h: 01:50 molto_nuvoloso Molto Nuvoloso 18 14 77 1022 10 N 5.5
Oggi h: 01:20 molto_nuvoloso Molto Nuvoloso 19 14 72 1022 10 N 5.5
Oggi h: 00:50 molto_nuvoloso Molto Nuvoloso 19 13 68 1022 10 E 20.3
Ieri h: 23:50 coperto_pioggia Pioggia Debole 22 12 53 1021 10 N 5.5
Ieri h: 22:50 molto_nuvoloso Molto Nuvoloso 22 11 49 1021 10 N 11.1